{"data":{"norad_id":46265,"epoch":"2026-05-25T03:30:33.968736Z","epoch_age_seconds":58839,"freshness":"FRESH","line1":"1 46265U 20059A   26145.14622649  .00000612  00000+0  83445-4 0  9997","line2":"2 46265  97.8894 331.3236 0001492  85.3906 274.7477 14.82150563310072","mean_motion":14.82150563,"eccentricity":0.0001492,"inclination_deg":97.8894,"raan_deg":331.3236,"arg_perigee_deg":85.3906,"mean_anomaly_deg":274.7477,"bstar":8.3445e-5,"rev_number":31007,"period_min":97.156121378473,"perigee_km":621.49956021737,"apogee_km":623.58856344622,"semimajor_km":7000.6810618318,"source":"CELESTRAK","updated_at":"2026-05-25T13:37:56.288660Z"}}